Weather History for KCDJ - November, 2012

Change the Weather History Date:

Tuesday, November 6, 2012

  Actual Average (KIRK) Record (KIRK)
Temperature  
Mean Temperature 50 °F 45 °F  
Max Temperature 57 °F 55 °F - ()
Min Temperature 42 °F 35 °F - ()
Degree Days  
Heating Degree Days 16 20  
Month to date heating degree days 113  
Since 1 July heating degree days 602  
Cooling Degree Days 0 0  
Month to date cooling degree days 0  
Year to date cooling degree days 939  
Moisture  
Dew Point 37 °F    
Average Humidity 69    
Maximum Humidity 92    
Minimum Humidity 39    
Precipitation  
Precipitation 0.01 in 0.10 in - ()
Month to date precipitation 0.73  
Year to date precipitation 35.57  
Sea Level Pressure  
Sea Level Pressure 30.03 in    
Wind  
Wind Speed 5 mph (WNW)    
Max Wind Speed 17 mph    
Max Gust Speed 26 mph    
T = Trace of Precipitation, MM = Missing Value Source: NWS Daily Summary

Daily Weather History Graph

Daily Weather History Graph

Search for Another Location

Airport or City:

Trip Planner

Search our weather history database for the weather conditions in past years. The results will help you decide how hot, cold, wet, or windy it might be!

Date:

Astronomy

Nov. 06, 2012 Rise Set
Actual Time 6:49 AM CST 5:06 PM CST
Civil Twilight 6:20 AM CST 5:34 PM CST
Nautical Twilight 5:48 AM CST 6:06 PM CST
Astronomical Twilight 5:17 AM CST 6:38 PM CST
Moon 11:45 PM CST (11/6) 12:41 PM CST (11/6)
Length of Visible Light 11h 13m
Length of Day
10h 16m
Waning Gibbous, 53% of the Moon is Illuminated
Nov 6
Waning Gibbous
Nov 6
Last Quarter
Nov 13
New
Nov 20
First Quarter
Nov 28
Full

Hourly Weather History & Observations

Time (CST) Temp. Windchill Dew Point Humidity Pressure Visibility Wind Dir Wind Speed Gust Speed Precip Events Conditions
12:52 AM 42.1 °F - 39.0 °F 89% 30.12 in - Calm Calm - N/A   Unknown
1:52 AM 42.1 °F - 39.9 °F 92% 30.10 in - Calm Calm - N/A   Unknown
2:52 AM 42.1 °F - 39.9 °F 92% 30.09 in - Calm Calm - N/A   Unknown
3:52 AM 42.1 °F - 39.9 °F 92% 30.08 in - Calm Calm - N/A   Unknown
4:52 AM 42.1 °F - 39.9 °F 92% 30.07 in - Calm Calm - N/A   Unknown
5:52 AM 42.1 °F 39.2 °F 39.0 °F 89% 30.06 in - SSW 4.6 mph - N/A   Unknown
6:52 AM 42.1 °F 38.4 °F 39.0 °F 89% 30.02 in - South 5.8 mph - N/A   Unknown
7:52 AM 42.1 °F 37.1 °F 39.0 °F 89% 30.04 in - SSW 8.1 mph - N/A   Unknown
8:52 AM 43.0 °F 39.5 °F 39.0 °F 86% 30.04 in - SW 5.8 mph - 0.01 in   Unknown
9:52 AM 44.1 °F 40.1 °F 39.0 °F 82% 30.03 in - SW 6.9 mph - N/A   Unknown
10:52 AM 46.0 °F 42.5 °F 39.9 °F 79% 30.02 in - West 6.9 mph - N/A   Unknown
11:52 AM 51.1 °F - 41.0 °F 68% 29.99 in - West 10.4 mph 17.3 mph N/A   Unknown
12:52 PM 55.0 °F - 41.0 °F 59% 29.96 in - NW 10.4 mph - N/A   Unknown
1:52 PM 57.0 °F - 37.0 °F 47% 29.94 in - WNW 17.3 mph 24.2 mph N/A   Unknown
2:52 PM 57.9 °F - 33.1 °F 39% 29.95 in - NW 12.7 mph 24.2 mph N/A   Unknown
3:52 PM 57.0 °F - 32.0 °F 39% 29.98 in - NW 13.8 mph 26.5 mph N/A   Unknown
4:52 PM 54.0 °F - 33.1 °F 45% 29.99 in - NW 10.4 mph - N/A   Unknown
5:52 PM 53.1 °F - 34.0 °F 48% 30.01 in - NNW 3.5 mph - N/A   Unknown
6:52 PM 52.0 °F - 34.0 °F 50% 30.03 in - Variable 6.9 mph - N/A   Unknown
7:52 PM 52.0 °F - 33.1 °F 49% 30.03 in - NW 10.4 mph - N/A   Unknown
8:52 PM 51.1 °F - 34.0 °F 52% 30.04 in - NW 6.9 mph - N/A   Unknown
9:52 PM 48.9 °F - 34.0 °F 56% 30.04 in - NW 6.9 mph - N/A   Unknown
10:52 PM 46.9 °F - 34.0 °F 61% 30.04 in - WNW 4.6 mph - N/A   Unknown
11:52 PM 46.9 °F - 34.0 °F 61% 30.04 in - WNW 8.1 mph - N/A   Unknown